Weather History for KMFI - September, 2013

Change the Weather History Date:

Monday, September 30, 2013

  Actual Average Record
Temperature  
Mean Temperature 59 °F -  
Max Temperature 72 °F 65 °F 79 °F (1971)
Min Temperature 46 °F 42 °F 23 °F (1918)
Degree Days  
Heating Degree Days 6    
Growing Degree Days 9 (Base 50)    
Moisture  
Dew Point 45 °F    
Average Humidity 62    
Maximum Humidity 86    
Minimum Humidity 34    
Precipitation  
Precipitation 0.00 in - - ()
Sea Level Pressure  
Sea Level Pressure 29.84 in    
Wind  
Wind Speed 10 mph (South)    
Max Wind Speed 21 mph    
Max Gust Speed 36 mph    
Visibility 10 miles    
Events      
Averages and records for this station are not official NWS values.
T = Trace of Precipitation, MM = Missing Value Source: NWS Daily Summary

Daily Weather History Graph

Daily Weather History Graph

Search for Another Location

Airport or City:

Trip Planner

Search our weather history database for the weather conditions in past years. The results will help you decide how hot, cold, wet, or windy it might be!

Date:

Astronomy

Sep. 30, 2013 Rise Set
Actual Time 6:57 AM CDT 6:42 PM CDT
Civil Twilight 6:28 AM CDT 7:11 PM CDT
Nautical Twilight 5:54 AM CDT 7:45 PM CDT
Astronomical Twilight 5:20 AM CDT 8:19 PM CDT
Moon 2:25 AM CDT 4:21 PM CDT
Length of Visible Light 12h 43m
Length of Day
11h 44m
Waning Crescent, 19% of the Moon is Illuminated
Sep 30
Waning Crescent
Oct 4
New
Oct 11
First Quarter
Oct 18
Full
Oct 26
Last Quarter

Hourly Weather History & Observations

Time (CDT) Temp. Dew Point Humidity Pressure Visibility Wind Dir Wind Speed Gust Speed Precip Events Conditions
12:54 AM 48.9 °F 44.1 °F 83% 29.94 in 10.0 mi South 6.9 mph - N/A   Clear
1:54 AM 48.9 °F 44.1 °F 83% 29.94 in 10.0 mi South 5.8 mph - N/A   Clear
2:54 AM 48.9 °F 44.1 °F 83% 29.92 in 10.0 mi South 4.6 mph - N/A   Clear
3:54 AM 46.9 °F 43.0 °F 86% 29.92 in 10.0 mi South 8.1 mph - N/A   Clear
4:54 AM 48.0 °F 43.0 °F 83% 29.91 in 10.0 mi South 6.9 mph - N/A   Clear
6:54 AM 51.1 °F 43.0 °F 74% 29.91 in 10.0 mi South 10.4 mph - N/A   Clear
7:54 AM 50.0 °F 43.0 °F 77% 29.90 in 8.0 mi South 11.5 mph - N/A   Partly Cloudy
8:54 AM 55.9 °F 44.1 °F 64% 29.88 in 10.0 mi SSW 10.4 mph - N/A   Clear
9:54 AM 62.1 °F 46.0 °F 56% 29.88 in 10.0 mi SSW 11.5 mph - N/A   Clear
10:54 AM 64.9 °F 46.9 °F 52% 29.86 in 10.0 mi South 19.6 mph 26.5 mph N/A   Clear
11:54 AM 68.0 °F 46.0 °F 45% 29.85 in 10.0 mi SSW 19.6 mph 29.9 mph N/A   Clear
12:54 PM 70.0 °F 44.1 °F 39% 29.83 in 10.0 mi SSW 19.6 mph 31.1 mph N/A   Clear
1:54 PM 70.0 °F 44.1 °F 39% 29.80 in 10.0 mi SSW 20.7 mph 35.7 mph N/A   Clear
2:54 PM 72.0 °F 45.0 °F 38% 29.78 in 10.0 mi South 19.6 mph 26.5 mph N/A   Clear
3:54 PM 71.1 °F 43.0 °F 36% 29.77 in 10.0 mi South 18.4 mph 26.5 mph N/A   Clear
4:54 PM 71.1 °F 41.0 °F 34% 29.76 in 10.0 mi SSW 19.6 mph 25.3 mph N/A   Clear
5:54 PM 68.0 °F 44.1 °F 42% 29.76 in 10.0 mi SSW 11.5 mph - N/A   Clear
6:54 PM 61.0 °F 46.0 °F 58% 29.77 in 10.0 mi South 6.9 mph - N/A   Clear
7:54 PM 60.1 °F 46.9 °F 62% 29.78 in 10.0 mi South 4.6 mph - N/A   Clear
8:54 PM 57.9 °F 46.9 °F 67% 29.79 in 10.0 mi South 3.5 mph - N/A   Clear
9:54 PM 55.9 °F 46.9 °F 72% 29.78 in 10.0 mi South 5.8 mph - N/A   Clear
10:54 PM 55.0 °F 48.0 °F 77% 29.78 in 10.0 mi South 5.8 mph - N/A   Clear
11:54 PM 55.9 °F 48.0 °F 75% 29.77 in 10.0 mi South 6.9 mph - N/A   Clear